Wind_Speed
10 9 8 7 6 6 6 6 6 6 6 6 5 4 4 4 6 7 8 9 9 10 13 15 16 17 18 19 21 23 24 25 25 27 28 28 29 30 31 31 32 32 32 31 31 31 30 30 29 29 28 28 27 27 27 26 26 26 26 26 26 26 25 25 24 23 22 21 20 19 18 16 14 13 11 11 11 11 10 10 10 10 10 9 7
8 7 6 5 5 5 4 5 5 5 7 8 6 6 6 7 9 11 12 13 14 15 16 16 17 18 19 21 23 25 26 27 28 30 31 32 32 33 34 34 34 34 34 34 34 33 33 33 33 33 32 32 32 31 31 31 31 31 31 31 31 30 29 28 27 26 25 23 22 21 20 18 16 14 13 13 12 12 12 12 12 12 11 10 7
6 5 5 4 4 5 5 5 6 7 9 9 8 8 10 12 13 14 16 17 18 18 18 18 19 21 23 26 28 29 30 32 33 34 35 35 36 36 36 36 36 36 36 36 36 35 35 35 35 35 35 35 35 36 36 36 36 36 36 36 36 35 34 32 30 29 27 26 24 23 22 20 18 17 16 16 15 15 14 14 14 14 13 11 9
4 4 4 4 4 5 6 6 8 9 11 10 10 12 15 17 18 18 19 20 21 21 21 22 24 27 30 32 34 35 36 37 37 38 38 38 38 38 38 38 38 38 38 38 38 37 37 37 37 37 37 37 37 37 38 38 38 38 38 38 38 37 36 36 35 33 31 29 27 25 24 22 21 20 19 19 19 19 18 18 17 16 14 13 12
2 4 5 6 6 7 8 9 11 12 13 13 14 18 20 21 22 22 22 24 25 26 27 29 31 33 35 37 39 39 39 39 39 39 39 39 39 39 39 39 39 39 39 39 39 38 38 38 38 38 38 38 39 39 39 39 38 38 37 37 37 37 37 37 37 36 35 34 32 29 27 24 23 22 21 21 21 21 21 20 19 19 17 16 14
4 6 8 9 9 10 12 12 13 15 16 18 20 23 25 25 25 26 28 30 31 33 34 35 36 37 39 40 41 41 40 40 40 39 39 39 39 39 39 39 38 38 38 38 38 38 38 39 39 39 39 39 39 40 39 39 38 37 37 38 37 37 37 37 37 37 37 37 36 34 31 28 26 24 24 23 23 23 23 23 23 22 21 19 17
6 9 10 12 12 13 15 16 17 19 22 25 27 28 29 29 30 32 34 35 37 38 38 39 39 39 40 41 41 40 40 40 39 39 39 39 39 39 38 38 37 37 36 36 36 37 37 37 38 38 38 39 39 39 39 38 38 38 38 38 38 38 38 38 38 37 38 38 38 37 35 31 29 27 26 26 25 25 25 26 26 26 24 21 18
9 11 13 14 15 16 18 20 22 26 29 31 31 32 34 35 37 38 38 39 39 39 39 38 38 38 38 39 39 38 38 38 38 38 37 37 37 37 36 36 36 36 35 35 35 35 35 36 36 36 36 37 37 37 37 37 38 38 37 38 38 37 38 38 38 38 38 39 39 39 38 35 32 29 28 27 27 26 26 27 28 28 26 24 21
12 14 16 17 17 19 22 26 29 33 35 36 36 38 39 40 40 39 39 38 37 37 36 36 36 36 36 37 37 37 37 37 37 36 36 35 35 34 34 34 34 33 33 33 34 34 35 35 35 35 35 35 35 35 36 37 38 38 37 37 37 37 37 38 39 39 40 40 40 40 39 38 34 31 29 28 27 28 30 30 31 31 29 27 26
15 17 18 18 20 23 27 32 35 37 39 40 41 42 41 40 39 38 37 36 36 35 35 36 36 36 36 37 37 37 37 36 35 35 34 34 33 33 33 33 32 32 32 32 32 33 33 34 34 34 34 34 34 35 36 37 38 38 37 37 37 38 38 38 39 40 41 41 41 41 41 40 37 34 31 29 29 30 32 33 34 34 33 33 32
19 19 19 21 24 27 32 36 39 41 42 43 42 41 39 38 37 37 36 36 36 36 37 37 37 37 37 37 36 36 35 35 34 34 33 33 32 32 31 31 31 31 31 31 31 32 32 33 33 33 34 34 34 35 36 37 37 37 37 37 38 38 39 39 40 41 42 42 42 43 43 42 40 37 33 30 30 32 33 36 38 38 38 38 38
21 22 23 26 29 31 35 38 41 43 43 42 40 38 38 37 37 37 37 37 37 38 38 38 38 38 37 36 35 34 34 34 33 33 32 31 31 30 30 30 30 30 30 30 31 31 31 32 32 32 32 33 34 34 35 36 36 36 36 37 38 38 39 40 41 42 43 43 44 45 45 45 44 41 36 32 31 32 34 38 41 41 41 41 41
24 25 27 30 31 34 37 39 42 43 41 39 38 37 37 38 38 38 38 37 38 38 38 38 37 37 36 35 34 34 34 33 32 32 31 31 30 29 29 30 30 30 30 30 30 31 31 31 31 31 31 33 34 34 35 35 35 35 36 36 37 39 40 41 42 43 44 45 45 46 47 48 47 44 41 37 34 33 35 39 42 43 44 44 44
25 27 29 31 33 35 37 40 42 41 39 37 37 38 39 39 39 39 38 37 37 36 36 36 36 35 34 34 34 34 34 33 32 32 32 31 30 30 30 29 29 29 29 30 30 31 31 30 30 30 32 33 34 34 35 35 34 35 35 36 38 39 40 41 42 44 45 46 47 48 49 50 49 48 45 41 37 36 37 40 43 45 46 46 45
25 27 28 30 32 35 37 40 41 40 38 37 37 38 39 40 39 39 39 38 37 37 36 35 35 34 34 34 34 34 34 33 33 32 32 32 31 30 30 30 29 29 29 30 30 30 30 30 31 32 33 34 34 35 35 35 35 35 37 38 38 39 40 42 43 45 46 47 48 49 50 51 51 51 49 46 43 40 39 40 42 44 46 47 46
26 27 28 30 31 34 37 39 40 39 38 37 37 37 38 39 39 40 39 39 38 38 37 36 35 35 35 34 34 34 33 33 33 33 33 32 32 31 31 30 30 30 30 31 31 31 31 32 33 33 34 34 34 34 34 35 35 37 38 39 39 39 40 42 44 46 47 47 49 50 51 52 53 53 52 50 48 45 43 42 42 43 45 46 46
27 29 30 30 32 36 38 40 41 39 38 37 37 37 38 38 38 38 38 38 37 37 36 35 35 34 34 34 34 34 33 33 33 33 33 32 32 31 31 30 30 31 31 31 31 31 32 32 33 33 33 33 33 33 33 34 36 37 39 40 40 40 41 43 45 46 46 47 49 51 52 53 53 54 54 54 52 51 48 46 44 43 43 45 45
29 31 33 33 36 38 40 41 41 39 37 37 36 36 36 35 35 35 35 34 34 34 33 33 33 33 33 33 33 32 32 32 32 32 32 31 31 31 31 30 31 31 31 31 31 31 32 32 33 33 33 33 33 33 33 34 36 37 38 39 40 41 42 43 45 45 46 48 49 51 53 53 53 54 55 56 56 55 54 51 49 46 44 43 43
32 34 36 37 39 41 41 41 39 37 37 35 34 33 33 32 32 32 33 33 33 33 32 32 31 31 32 32 32 32 31 31 31 31 31 31 31 31 31 31 31 31 31 31 31 31 32 33 33 34 34 33 33 34 35 36 37 37 38 39 40 42 43 44 44 45 46 48 49 51 52 52 53 54 55 56 57 57 57 56 55 52 50 47 44
37 38 40 41 41 41 41 39 37 36 35 33 31 31 31 31 32 32 33 33 33 32 31 30 30 29 30 30 31 31 31 30 30 30 30 30 31 31 30 30 31 31 30 30 30 31 32 33 34 34 34 34 34 35 36 36 37 38 39 40 41 42 44 44 44 45 46 47 49 50 51 52 53 53 54 55 57 58 58 58 58 58 56 54 50
41 42 41 40 39 39 38 36 35 34 32 31 31 32 32 32 32 32 32 32 32 31 30 29 29 29 29 28 29 30 31 30 30 29 29 29 30 30 30 30 30 30 29 29 29 30 31 32 33 34 33 34 34 35 36 37 37 38 39 40 41 43 44 44 44 45 46 47 48 49 50 51 51 52 53 54 55 56 57 58 59 59 59 59 57
40 39 38 37 37 37 36 35 34 32 31 32 34 34 34 33 33 33 32 31 31 30 30 30 30 30 30 29 29 30 30 30 30 29 29 29 29 28 28 29 29 29 29 28 27 27 28 30 31 32 33 34 34 35 35 36 37 38 39 40 41 42 43 44 45 45 45 46 47 48 49 50 51 51 52 52 52 53 54 55 56 57 58 59 59
36 36 36 36 36 36 35 34 34 33 34 35 35 35 34 34 33 32 32 31 31 31 30 30 30 30 30 30 30 29 29 29 29 29 29 29 28 27 26 27 27 27 28 27 26 26 25 26 28 30 31 32 33 33 34 34 36 37 38 39 40 41 42 43 44 44 44 46 46 47 48 48 49 50 51 51 51 51 51 51 53 54 55 56 56
37 37 37 37 36 36 36 35 35 36 36 36 35 34 33 33 32 31 31 30 30 30 29 29 29 29 29 29 29 28 28 28 28 28 28 28 28 26 25 25 25 25 26 26 26 25 24 24 25 26 27 28 29 30 31 32 33 34 36 37 38 39 40 40 41 41 42 43 44 44 45 45 46 47 48 49 49 49 49 49 50 51 51 52 53
36 37 36 36 37 37 37 36 36 36 35 34 33 32 31 31 30 29 29 28 28 28 28 28 28 28 27 27 27 27 26 26 26 26 26 26 26 25 24 23 23 23 23 24 24 24 23 22 22 22 23 24 25 26 28 29 29 30 32 33 35 36 36 37 38 38 39 40 41 41 42 42 42 43 44 45 46 47 47 47 47 47 48 49 49
33 34 34 35 37 37 36 35 35 34 34 33 32 30 30 29 28 27 27 26 26 26 26 26 26 26 25 25 25 25 25 24 24 24 23 23 23 23 22 22 21 21 21 21 22 22 22 21 21 20 20 21 22 23 24 25 26 26 28 29 31 32 33 33 34 34 35 36 37 38 38 39 39 40 40 41 41 42 43 44 44 44 44 45 46
31 33 34 36 36 35 34 34 34 33 32 31 30 29 28 28 27 26 25 24 24 23 23 23 23 23 23 24 24 24 23 23 23 22 22 21 21 21 21 20 20 19 19 20 20 20 20 20 20 19 19 18 19 20 21 22 22 23 24 25 26 28 28 29 30 30 31 32 33 34 34 35 36 36 37 37 38 38 39 39 40 40 41 41 42
30 33 34 35 34 33 32 32 32 31 30 28 27 27 26 25 24 23 22 22 21 20 20 20 20 20 20 21 21 21 20 20 21 21 20 20 19 19 19 18 18 18 18 18 19 19 18 18 18 17 17 16 16 17 17 18 18 19 20 21 22 23 24 25 26 27 27 28 29 30 30 31 32 33 33 34 34 34 35 35 36 36 37 37 38
29 31 32 31 31 30 30 29 28 28 27 26 25 24 23 22 21 20 19 18 17 17 17 17 17 17 17 17 18 18 17 17 18 19 19 18 18 17 17 17 16 16 16 16 16 17 17 16 16 15 14 13 13 14 14 14 15 15 16 17 18 19 20 21 22 23 23 24 24 25 25 27 28 29 30 30 31 31 31 32 33 33 33 33 34
26 28 29 28 28 28 27 27 27 26 25 24 23 22 20 19 17 16 15 15 14 13 13 13 14 14 14 14 14 15 15 15 16 16 17 16 16 15 15 15 14 14 14 13 13 12 12 13 13 12 12 11 10 10 10 11 11 12 12 13 14 15 16 17 18 19 20 21 21 21 22 23 25 26 27 27 28 28 28 29 29 30 30 30 30
24 25 26 26 26 26 26 25 25 24 23 21 20 18 17 16 15 14 13 12 11 10 10 10 10 10 10 10 11 11 12 12 13 14 14 14 14 14 13 12 12 11 10 11 11 10 9 10 10 10 9 9 8 8 7 7 8 8 9 9 10 11 13 14 15 16 17 17 18 18 19 20 21 22 23 24 25 25 26 26 26 26 27 27 26
22 23 24 24 24 25 24 23 23 21 20 19 17 16 14 13 11 11 10 9 8 8 7 7 7 7 7 7 8 9 9 10 11 12 12 13 13 13 12 10 10 8 8 9 11 10 9 7 7 7 6 6 6 6 6 6 6 5 5 6 7 8 9 10 12 13 14 15 15 15 16 17 18 19 20 21 22 22 23 23 23 23 23 23 23
19 20 21 22 23 23 22 21 20 19 17 16 15 13 11 9 8 8 6 6 6 5 5 5 4 4 4 5 6 7 7 8 9 10 11 12 12 11 10 9 8 8 8 9 10 11 11 9 7 6 6 7 7 8 8 7 6 6 6 5 5 5 7 8 9 11 13 15 15 15 16 16 16 16 16 17 18 20 20 21 21 20 20 20 19
15 16 18 19 20 20 19 18 17 15 14 11 9 7 6 4 3 4 3 3 3 3 3 3 3 3 2 3 4 5 6 7 8 9 10 11 11 10 8 8 7 7 8 8 9 10 12 12 9 8 9 12 12 13 13 11 9 8 8 8 8 7 8 9 10 11 13 14 16 17 18 18 17 17 16 15 16 17 18 19 19 18 17 17 16
13 15 16 16 16 15 14 13 12 10 8 6 3 2 2 1 1 1 2 2 3 3 3 2 3 2 2 2 3 3 5 6 8 9 10 10 10 8 7 6 7 7 7 7 8 9 10 11 10 9 10 13 14 15 15 13 11 10 10 11 11 10 10 11 12 13 13 14 16 17 19 19 19 19 18 17 17 17 17 17 17 16 15 14 13
14 16 16 15 13 12 10 8 7 6 5 5 6 5 4 4 4 4 3 3 4 4 4 3 3 3 3 4 4 5 6 7 9 10 10 8 7 6 6 5 6 6 6 6 7 9 10 10 10 10 11 12 13 14 14 13 12 12 11 10 11 11 12 12 13 14 15 15 16 18 18 19 19 19 18 18 18 18 17 17 17 15 13 12 11
15 16 15 14 13 12 10 9 8 7 6 6 6 5 4 5 5 5 5 5 6 6 5 5 5 5 6 7 8 8 9 9 10 10 9 7 5 5 5 5 6 6 7 8 9 10 11 11 10 10 10 11 13 14 14 14 14 13 12 10 10 11 12 13 15 16 16 17 19 19 19 19 19 19 19 19 19 18 17 17 16 16 14 12 10
15 15 15 15 15 14 13 14 13 12 10 8 7 6 6 7 7 6 6 7 8 8 8 8 8 9 10 11 12 12 11 11 11 10 9 7 6 5 5 6 7 9 10 11 12 12 13 13 12 12 11 11 11 13 14 15 15 15 14 12 12 12 13 14 16 17 18 19 20 21 22 22 22 21 20 19 18 18 17 16 15 15 14 12 10
16 15 16 17 16 16 16 17 17 16 15 13 12 11 9 9 10 10 10 11 11 11 11 12 12 12 13 14 15 14 13 12 11 10 9 8 7 7 7 8 9 11 12 13 13 14 14 14 15 15 14 13 12 12 13 14 15 15 15 14 14 15 16 16 19 20 19 17 19 22 24 25 25 24 22 20 18 18 17 16 15 14 13 12 10
17 17 17 18 18 18 18 18 18 18 17 16 16 15 14 13 13 15 16 16 15 15 15 15 15 15 15 15 15 14 13 12 11 10 10 10 10 10 10 11 12 13 14 15 15 16 16 16 17 17 17 16 15 13 13 14 14 15 15 15 16 17 18 20 22 22 19 16 18 22 23 23 24 25 24 23 21 19 18 17 16 15 14 14 12
19 18 19 19 19 18 18 19 20 19 19 19 18 17 17 16 17 19 19 18 17 17 16 16 16 15 15 14 14 13 13 13 13 13 13 13 13 14 14 15 16 17 17 18 18 18 18 17 18 18 18 18 18 17 16 16 16 16 16 17 17 19 20 21 23 25 23 20 21 24 26 24 23 23 25 27 27 25 23 21 19 18 17 17 16
19 19 20 20 20 20 19 20 21 22 21 21 21 20 19 18 18 19 20 18 17 16 15 16 16 16 16 15 15 15 15 16 17 17 17 17 18 19 20 21 21 21 20 19 19 19 19 19 19 19 20 20 20 20 20 20 19 18 19 19 19 20 21 21 22 24 26 25 24 27 30 29 26 24 25 27 29 30 29 27 25 23 22 21 21
17 18 19 19 20 20 20 20 21 22 22 21 21 21 21 20 19 19 20 18 16 16 16 17 18 19 19 19 19 19 19 19 20 21 21 22 22 23 24 25 25 24 23 22 22 22 21 21 21 21 22 22 22 23 23 23 23 22 22 22 22 22 23 23 23 24 26 28 28 29 30 31 31 30 29 29 29 30 30 31 31 30 28 27 26
18 18 18 19 19 19 19 19 20 21 20 20 19 19 20 20 20 21 22 20 18 18 19 20 22 22 22 22 22 21 21 21 23 23 23 24 25 25 26 26 26 26 26 26 25 25 25 25 25 24 25 25 24 24 25 26 26 26 25 25 25 26 25 25 25 25 27 29 30 31 30 31 32 32 31 32 31 29 30 33 35 36 35 33 32
22 22 22 22 22 21 21 21 21 21 21 20 19 19 19 19 20 21 22 21 20 20 21 22 24 25 25 24 24 23 23 24 25 25 25 26 26 26 27 27 28 28 29 29 29 29 29 29 30 29 29 30 29 29 28 28 29 29 29 28 28 29 28 28 27 27 28 30 32 34 34 33 33 34 33 33 33 33 35 36 36 38 38 37 36
26 26 26 26 26 25 24 24 23 23 22 21 21 21 21 21 21 21 21 21 21 23 24 23 23 25 27 29 28 27 28 28 28 28 28 29 29 29 29 29 29 30 30 31 31 32 33 33 33 34 34 34 34 34 33 33 33 32 32 32 31 32 31 31 31 31 31 33 34 37 38 37 37 38 38 37 37 37 37 37 37 38 39 40 40
29 29 29 28 28 28 28 27 27 26 25 24 24 23 23 24 24 23 23 22 24 26 26 25 25 27 30 32 31 31 32 33 33 32 31 32 32 32 31 31 30 30 31 31 32 33 35 37 37 37 37 37 37 37 37 36 36 35 35 35 35 34 34 34 34 35 36 37 38 40 42 42 41 42 43 43 42 42 41 40 41 41 42 43 45
32 31 29 28 29 31 31 31 30 30 29 29 28 28 27 27 27 27 26 26 28 29 30 30 30 32 33 33 34 35 37 37 37 36 35 35 35 35 35 34 34 34 34 34 35 36 37 39 40 40 40 40 39 39 38 38 38 38 38 39 39 39 39 39 39 39 40 42 43 45 46 47 47 47 48 48 48 48 48 48 48 47 46 47 48
32 31 30 30 31 33 33 32 33 33 33 33 33 32 32 31 31 31 31 31 32 33 34 34 35 36 37 38 38 40 41 41 40 38 37 37 37 38 38 38 38 38 38 38 39 40 41 41 41 40 41 42 43 44 43 43 43 43 43 44 44 44 45 45 45 45 45 46 47 49 50 51 50 51 51 51 52 52 53 54 54 53 53 53 53
33 32 32 32 32 33 33 33 35 36 36 36 35 35 34 34 34 34 33 32 32 34 35 37 38 39 40 42 44 45 45 44 43 42 41 41 40 39 38 39 39 39 39 40 41 42 43 44 43 43 45 47 48 48 48 48 48 48 48 49 50 50 51 51 50 51 51 51 52 53 53 53 54 54 54 54 55 56 56 58 59 59 58 59 59
35 33 33 33 34 35 35 37 38 39 38 37 35 34 35 35 35 35 33 32 33 35 37 38 39 40 39 40 43 46 47 47 45 43 43 42 40 40 39 38 38 38 39 41 42 44 45 45 46 48 50 51 50 50 50 51 51 52 52 52 53 54 54 55 55 55 56 56 57 57 57 57 57 57 57 57 58 59 61 62 63 64 65 65 65
Wind_Direction
83 78 74 69 65 69 82 79 66 67 74 73 73 75 77 79 78 77 77 77 81 86 86 85 89 91 93 94 92 90 89 90 89 88 86 85 83 81 80 79 78 78 77 76 75 75 74 73 72 71 69 68 66 65 64 64 63 62 61 60 59 57 56 54 53 51 50 49 48 48 46 42 37 29 21 14 10 9 5 0 352 346 347 349 359
83 84 82 78 74 66 73 79 67 75 83 74 69 68 69 80 86 89 92 92 92 91 89 90 93 95 96 95 92 91 90 89 87 86 85 84 83 82 81 81 80 80 79 78 77 76 75 75 74 72 71 70 69 68 67 66 65 64 63 62 60 58 57 55 53 52 51 50 49 48 46 42 38 31 25 20 15 10 4 359 356 354 356 358 1
84 89 86 80 72 49 45 65 71 83 89 79 76 81 85 91 95 97 99 98 95 93 92 93 94 95 95 93 92 90 89 88 87 86 86 85 85 84 84 83 82 81 80 79 78 76 75 74 73 72 72 71 71 70 69 68 66 65 64 63 61 59 57 56 54 53 51 51 50 48 47 45 42 39 35 33 30 27 24 21 17 15 13 6 354
80 78 69 63 51 38 48 73 84 91 91 87 92 98 99 101 102 103 103 100 97 94 94 94 94 95 95 93 92 90 89 88 87 87 87 86 86 85 84 83 81 80 79 78 77 76 75 73 72 71 71 70 70 70 69 67 66 65 63 62 61 60 58 57 55 54 53 51 50 49 48 47 45 43 41 39 37 35 33 31 26 20 12 359 341
53 50 54 56 50 55 73 88 94 97 97 97 102 104 105 106 106 105 102 99 98 98 98 98 98 97 95 94 92 91 90 89 89 88 87 86 85 84 83 81 80 79 78 77 76 74 73 72 71 70 69 69 68 68 67 66 65 64 63 62 61 60 58 57 56 54 53 52 51 50 49 48 47 46 45 43 41 39 37 34 29 21 10 357 342
35 48 59 64 68 79 90 96 100 104 106 106 106 107 107 107 105 102 100 100 101 102 102 101 99 97 95 94 93 92 91 90 88 87 86 85 84 83 82 81 80 78 76 75 74 72 71 70 69 67 67 66 66 66 65 64 64 62 61 60 59 58 57 56 55 54 53 52 51 50 49 48 48 48 47 47 45 44 42 38 31 22 14 4 353
48 62 72 78 85 95 100 102 106 111 111 109 110 110 109 107 105 104 104 104 104 104 102 100 97 96 95 94 93 92 91 89 87 86 84 83 82 81 80 79 78 77 75 74 73 72 71 70 68 67 65 65 64 64 64 63 62 60 58 57 57 56 55 54 53 53 52 51 50 49 48 48 48 49 49 50 50 49 45 39 32 26 20 14 10
72 80 86 90 98 104 107 109 112 113 112 112 112 111 109 108 108 107 106 106 105 103 101 99 97 96 94 94 93 92 90 88 87 85 84 83 82 81 80 79 78 76 75 74 73 72 71 70 69 68 66 65 64 63 63 63 62 60 58 56 55 54 53 52 52 52 51 51 50 49 48 48 49 51 53 54 53 51 46 40 34 29 27 27 32
88 95 97 100 107 111 112 114 114 114 114 114 113 111 110 109 108 107 106 104 102 101 100 99 98 96 94 93 92 90 89 87 86 85 84 83 82 81 79 78 77 76 75 73 71 71 70 70 69 68 67 66 65 64 63 63 62 60 58 57 56 54 53 51 51 51 51 50 50 49 49 49 50 53 56 56 56 52 47 43 38 36 38 43 46
98 102 103 108 113 115 116 117 116 116 116 115 113 112 110 109 107 106 104 103 101 100 99 99 98 96 93 91 90 89 88 87 86 85 84 82 80 79 78 76 75 74 73 72 71 69 69 69 69 68 68 67 66 64 63 63 62 61 59 57 56 55 53 52 51 51 50 50 49 49 49 50 51 54 57 58 57 54 50 46 43 44 48 51 49
103 105 108 113 116 118 119 119 118 118 117 116 113 111 109 108 106 104 103 103 101 99 98 96 95 94 92 90 88 88 87 86 85 84 82 81 79 77 76 75 74 72 71 70 69 69 69 68 68 68 68 67 66 65 64 63 63 62 60 58 57 55 54 52 51 51 51 50 49 49 49 50 52 53 56 58 58 56 52 49 48 50 53 53 51
107 109 111 114 117 120 122 121 120 120 118 116 112 110 109 107 106 105 103 102 100 97 95 93 92 91 90 89 88 86 85 83 82 81 80 79 78 77 76 74 73 72 70 69 68 68 69 69 68 67 67 67 67 66 65 64 63 62 60 59 57 56 54 53 52 51 51 51 50 50 50 50 51 53 55 57 58 57 54 52 51 53 55 55 54
112 113 113 114 118 122 123 122 122 121 118 114 111 110 109 108 107 106 103 101 98 95 93 91 90 89 89 88 86 84 83 81 80 79 79 78 77 76 75 74 72 71 70 70 70 70 70 70 69 68 69 69 69 68 67 66 64 62 61 60 59 57 56 54 53 52 52 51 51 51 51 51 51 52 54 55 58 58 57 55 53 54 56 56 56
118 118 116 115 119 123 124 123 124 122 118 115 112 111 109 108 107 105 102 100 98 95 93 92 90 89 88 86 84 82 81 80 79 78 77 76 76 75 75 74 73 72 71 72 72 72 72 72 72 73 72 72 71 70 69 68 66 65 64 63 61 59 57 56 55 54 53 52 51 51 51 52 52 52 53 54 56 58 59 58 56 55 56 57 57
123 124 121 117 119 122 123 124 125 122 119 116 114 113 111 108 105 102 101 99 97 96 94 92 90 89 86 84 82 80 78 78 77 77 76 76 76 76 76 76 75 75 74 74 74 74 75 76 76 76 76 75 73 72 70 70 69 68 67 66 63 61 59 58 57 56 54 53 53 53 52 52 52 52 53 54 55 57 59 60 59 57 57 58 59
121 126 125 121 120 122 123 125 125 123 120 118 116 114 112 108 104 101 100 98 97 95 93 92 90 88 85 83 81 78 77 76 76 76 76 76 76 76 76 76 76 76 76 76 76 77 78 78 78 77 76 75 73 72 71 71 71 70 69 68 66 64 62 61 60 58 57 56 55 55 54 54 53 53 53 54 55 56 58 60 61 60 59 59 60
117 122 124 122 121 123 124 125 125 123 121 119 116 114 112 109 105 102 100 98 96 94 92 90 88 86 84 81 79 77 75 75 76 76 75 75 75 75 75 75 75 75 76 77 78 79 79 78 77 76 75 74 73 73 72 72 72 71 70 69 67 66 65 64 62 61 60 59 58 58 57 55 54 54 55 55 55 56 57 59 61 62 62 61 60
117 120 122 122 122 124 124 126 125 123 121 118 114 112 111 109 106 103 100 98 96 94 92 90 87 84 81 79 77 75 74 74 75 75 75 76 76 76 75 75 75 76 77 79 80 81 80 78 77 77 76 75 74 74 74 74 73 71 70 69 69 69 68 66 64 63 63 62 62 61 60 58 57 57 57 57 57 57 57 58 60 62 63 64 63
118 119 121 122 123 124 125 126 124 122 119 115 112 111 110 108 105 103 100 98 96 94 92 89 86 82 79 76 75 74 74 74 74 75 76 77 77 76 75 75 76 78 80 82 84 84 82 80 80 79 78 76 76 76 76 75 73 72 71 70 70 70 69 67 65 65 65 64 64 63 62 62 61 60 60 60 59 59 59 59 60 61 63 64 65
116 118 120 122 123 124 126 126 123 121 117 113 111 110 109 106 103 101 99 96 95 93 91 88 84 80 77 75 74 74 74 74 74 74 75 76 76 76 76 76 77 78 81 83 85 85 84 83 82 80 78 78 78 77 76 75 74 74 74 73 72 71 70 68 67 66 66 66 65 64 64 64 64 64 63 62 62 62 61 62 62 62 63 64 65
115 118 119 121 122 124 125 124 122 121 117 112 111 109 107 105 103 100 99 97 95 93 91 88 85 82 79 77 75 74 74 73 73 73 73 73 73 74 75 76 77 78 80 82 83 85 86 85 82 81 80 80 79 77 76 75 75 76 76 75 74 72 71 69 69 68 68 67 66 65 65 65 65 65 65 64 64 64 63 63 64 64 65 66 67
116 118 119 121 122 124 124 122 121 120 117 114 111 108 106 105 103 102 100 98 96 93 91 89 86 84 82 80 78 76 75 74 74 74 73 72 72 73 75 76 76 77 78 79 82 86 88 86 83 82 81 80 78 77 76 76 76 77 77 76 75 74 73 72 71 70 69 68 68 67 66 65 65 65 65 65 65 65 64 64 65 65 66 67 68
119 120 121 122 122 122 122 121 120 118 117 114 112 109 107 106 104 103 101 99 96 94 92 90 87 85 83 81 79 77 76 76 77 76 75 73 74 75 77 76 76 75 75 76 80 84 87 86 83 81 80 79 77 76 76 77 78 78 78 77 77 76 74 73 73 71 70 69 68 68 67 66 65 65 65 65 65 65 65 65 65 66 66 66 68
119 121 121 122 122 122 121 120 119 118 117 115 113 110 108 107 105 103 101 99 98 96 93 90 88 85 83 80 79 77 75 74 75 74 73 72 73 75 77 76 75 73 73 73 74 76 79 81 81 78 77 77 77 77 77 77 78 79 78 78 77 76 75 73 72 71 70 69 68 67 66 66 66 65 65 65 66 66 65 64 65 65 66 66 67
121 123 123 123 124 123 122 121 120 119 118 117 115 112 109 108 106 104 103 101 99 96 93 90 86 83 80 80 79 78 75 72 71 69 68 68 68 70 73 75 74 73 72 72 71 70 71 74 77 77 75 75 77 78 78 77 77 77 77 77 76 76 74 72 71 69 68 67 67 66 64 64 64 65 65 66 66 66 66 65 64 64 65 65 66
127 128 126 126 126 126 124 122 122 120 119 119 116 113 111 109 107 105 102 100 97 94 91 88 84 81 78 79 80 79 77 74 70 67 66 65 65 66 69 71 71 71 72 72 71 70 70 70 72 74 74 74 75 76 77 77 76 75 75 74 74 74 73 72 70 68 66 65 64 63 62 61 61 61 62 63 63 64 66 66 65 64 65 65 66
128 130 129 129 129 128 125 124 123 122 121 120 118 115 112 109 106 102 99 96 94 91 88 86 82 78 76 76 76 76 75 74 70 67 65 63 63 62 64 67 68 67 67 67 68 68 67 67 68 69 70 72 74 76 76 75 74 73 72 71 70 71 71 70 69 66 65 63 61 60 58 57 56 57 57 58 58 59 61 63 65 64 64 65 65
128 130 130 130 130 129 127 126 125 124 122 120 117 114 110 106 102 98 95 94 92 89 87 85 81 77 73 72 71 69 69 70 68 66 63 61 60 59 60 63 65 65 63 64 65 65 65 65 65 65 66 69 72 73 73 72 72 72 71 69 67 67 67 66 66 65 63 62 60 59 56 53 52 52 52 52 53 53 54 56 59 61 62 63 64
130 132 131 130 130 130 128 127 126 125 122 119 116 113 109 105 101 98 96 94 90 86 84 83 80 76 72 71 69 66 65 64 63 62 61 59 57 56 56 56 57 59 60 60 60 61 62 62 62 61 62 64 65 67 70 72 71 69 68 67 65 64 62 61 60 60 59 58 58 56 52 49 48 47 46 46 47 48 48 48 50 54 57 59 61
133 135 135 132 132 132 130 128 128 126 124 120 117 114 111 107 103 100 96 92 86 81 78 77 76 73 69 66 65 63 60 57 55 55 55 53 51 51 52 50 49 52 55 55 53 54 58 60 61 61 62 61 62 64 68 71 72 68 63 62 61 60 58 56 54 53 51 51 51 50 47 45 43 42 40 40 40 40 41 41 42 45 49 53 55
139 140 140 137 136 134 133 131 130 128 127 124 120 117 115 110 105 99 93 86 79 73 70 67 67 66 62 58 56 54 50 46 44 45 45 43 39 37 38 39 40 43 45 41 38 41 48 57 62 64 65 63 59 57 56 57 63 64 61 56 52 51 49 48 47 45 43 42 40 38 37 37 37 36 34 33 32 32 33 34 35 37 41 45 49
144 145 144 143 141 138 137 136 135 135 134 132 129 125 120 115 110 105 95 83 76 70 61 55 57 59 56 51 46 42 39 33 29 28 28 25 23 22 21 23 26 29 27 20 20 22 24 32 44 49 57 58 48 38 30 25 24 30 42 47 42 38 37 36 35 33 30 28 26 24 23 25 27 27 26 25 23 23 24 25 28 30 33 37 41
151 152 151 149 148 146 144 143 144 142 139 137 135 131 128 127 123 117 103 83 74 65 51 45 46 48 52 47 37 30 25 19 13 11 9 6 5 7 10 14 19 21 20 18 18 17 14 7 359 357 3 3 359 352 351 352 348 341 345 0 11 12 11 11 9 6 3 1 0 0 1 4 7 10 12 13 12 12 13 15 18 21 25 30 34
162 162 160 158 157 154 150 148 146 142 138 133 125 121 130 139 126 112 94 64 54 43 33 31 24 25 40 41 28 16 8 2 355 351 348 347 348 353 1 11 23 28 28 30 28 21 17 12 359 339 333 336 337 335 337 341 340 329 318 317 324 330 332 334 338 344 348 348 348 349 349 348 348 349 351 355 358 358 359 1 5 10 15 20 25
179 175 171 166 161 157 153 150 149 147 147 148 152 168 191 226 295 326 338 339 337 336 341 345 344 340 345 357 356 346 340 338 334 331 331 332 334 343 358 11 26 34 34 35 28 17 15 13 6 350 332 329 329 329 332 337 338 332 320 313 315 322 327 331 337 342 345 346 347 348 347 346 345 344 344 346 349 349 348 348 352 356 2 7 13
184 183 179 172 169 164 158 162 167 170 180 194 206 215 216 232 260 275 280 286 285 284 288 299 308 305 302 307 306 301 305 311 316 318 319 323 327 338 356 8 17 23 20 11 2 355 355 355 354 348 338 332 330 329 333 336 335 334 331 323 319 325 332 338 343 343 341 341 343 344 345 344 344 345 344 344 345 346 344 342 341 344 348 353 359
189 189 186 185 186 181 180 194 203 200 197 201 210 216 222 242 260 266 263 263 263 263 268 278 285 286 288 291 292 292 294 300 307 310 310 312 315 324 338 347 349 348 344 340 337 336 337 336 335 335 334 333 332 330 332 335 334 332 330 325 319 323 330 336 340 339 334 332 334 337 340 340 340 342 344 343 343 343 341 338 334 333 334 336 338
196 193 193 195 197 196 198 207 217 220 218 219 223 230 248 262 263 258 258 265 266 266 271 275 278 282 286 290 291 291 293 296 298 299 298 297 296 301 312 321 326 327 326 326 326 326 325 324 324 327 328 331 331 328 327 328 328 327 323 316 308 311 321 326 326 324 323 322 322 326 331 332 332 334 337 338 337 336 335 334 328 323 322 322 318
200 199 199 199 202 207 208 213 223 227 227 231 235 239 252 265 269 268 270 272 272 273 277 279 280 283 286 288 288 288 290 292 292 289 285 281 280 283 292 299 306 311 314 315 316 317 316 315 316 319 321 323 324 324 321 319 319 319 317 312 303 300 304 304 304 310 314 311 313 319 324 325 324 325 327 327 327 326 325 325 321 313 307 305 302
206 206 207 209 215 221 220 222 229 232 233 238 240 241 246 254 264 274 276 276 276 279 282 283 284 285 284 284 283 283 287 290 290 285 278 275 274 276 280 286 293 299 304 306 306 306 307 307 308 310 311 313 314 314 312 310 309 308 307 307 304 300 299 298 301 307 306 298 303 312 317 317 316 317 317 316 315 314 312 312 310 304 297 292 290
215 215 216 219 226 233 232 231 237 240 242 243 242 244 249 254 261 268 270 273 278 281 283 284 284 283 281 278 276 278 283 286 286 284 281 278 278 279 281 284 289 294 297 299 299 300 301 302 302 303 304 305 306 305 303 302 301 299 298 299 299 299 301 302 305 307 303 297 296 300 307 314 314 311 309 307 306 307 305 302 300 297 293 287 283
223 223 225 228 232 237 239 239 241 245 247 248 246 248 255 260 261 262 262 268 277 282 281 282 282 281 279 276 275 277 280 281 282 283 283 283 283 285 286 288 291 293 294 294 294 295 296 296 297 297 298 299 300 300 299 297 296 296 294 294 294 294 296 299 300 301 301 300 295 295 302 310 311 307 304 300 298 300 301 299 297 294 292 289 284
228 228 229 231 234 238 242 244 246 249 252 253 251 250 253 257 258 260 261 265 273 279 280 281 281 281 281 280 279 281 282 284 286 286 286 287 287 288 288 290 292 293 294 294 294 293 293 294 293 293 293 293 294 295 296 295 294 293 292 291 291 290 290 292 294 294 295 297 297 297 300 303 304 304 303 298 294 294 297 298 297 294 291 290 288
235 235 235 236 237 239 242 244 246 250 253 255 255 254 256 256 256 258 261 265 274 281 285 286 283 282 281 280 279 281 283 285 287 288 289 289 288 287 287 288 290 292 294 295 296 296 297 297 297 296 294 293 292 292 293 294 294 294 293 292 291 291 290 291 291 291 291 293 294 295 295 296 297 298 299 297 293 292 296 299 297 294 293 291 290
237 238 239 241 241 241 242 243 245 248 251 254 256 258 260 261 261 261 262 267 273 275 277 279 279 280 280 277 274 274 277 281 284 286 287 287 286 286 285 285 286 288 291 294 296 298 298 299 299 299 299 297 296 295 293 292 293 294 294 294 294 294 294 295 294 294 293 293 294 294 294 295 295 295 294 293 292 292 294 295 293 292 292 292 292
240 240 241 242 243 244 244 245 247 249 251 253 256 258 260 262 263 263 263 265 266 265 266 267 270 274 276 275 273 272 273 275 277 280 281 282 283 284 284 284 285 287 290 292 295 297 298 299 299 299 299 299 299 298 297 295 294 293 293 293 293 294 295 296 297 297 297 296 296 296 296 296 296 296 294 293 292 291 290 290 288 287 287 289 291
243 242 243 245 247 248 248 249 250 251 253 255 257 259 261 262 263 264 263 262 263 264 265 264 263 265 267 268 270 272 275 276 277 279 280 281 282 283 283 283 284 287 289 291 293 297 298 299 299 299 299 299 299 298 297 296 295 294 293 292 292 293 294 295 296 297 298 297 297 296 296 295 295 295 295 294 294 292 290 288 287 285 283 284 287
249 248 249 250 252 253 252 252 253 254 255 257 259 260 262 264 265 267 266 263 263 264 264 264 264 265 266 267 269 272 275 277 277 278 279 281 283 284 283 282 281 284 286 287 290 295 299 300 300 299 300 301 301 300 299 299 298 297 295 294 292 291 292 293 294 295 297 298 298 298 297 296 296 296 295 295 295 293 292 291 289 288 286 285 285
256 255 252 248 248 252 255 255 255 256 256 257 258 260 262 264 267 269 270 270 269 270 270 270 270 270 269 269 270 273 275 276 276 275 277 281 283 285 285 283 281 281 283 285 288 293 297 298 297 297 299 301 301 300 300 300 300 299 298 296 295 293 292 292 293 294 295 297 298 298 298 298 297 296 296 295 294 294 293 292 291 291 290 289 288
257 255 253 251 251 257 263 262 258 256 255 255 257 259 262 265 268 269 271 274 276 277 278 278 277 276 275 274 273 274 275 276 275 275 278 282 284 285 286 285 283 282 283 285 288 290 294 295 293 293 296 298 297 297 298 298 298 298 297 296 294 293 292 291 291 292 292 293 295 295 296 296 296 296 296 296 295 294 294 293 293 294 293 291 291
258 255 255 256 258 262 267 267 263 259 258 258 260 262 263 266 269 270 271 273 275 275 275 275 275 275 275 277 277 275 274 275 276 276 279 281 282 284 285 284 283 283 284 286 288 289 291 291 290 291 294 295 295 295 296 297 297 296 295 294 292 291 290 289 289 289 290 291 292 292 293 294 294 294 295 295 295 295 295 294 294 294 293 293 293
Height
10917 10917 10918 10918 10919 10920 10920 10920 10920 10919 10919 10918 10918 10918 10918 10918 10918 10917 10917 10917 10917 10917 10916 10915 10915 10914 10914 10914 10913 10912 10911 10911 10910 10909 10908 10908 10907 10907 10906 10906 10905 10904 10904 10903 10902 10902 10901 10901 10900 10899 10898 10897 10896 10895 10894 10893 10891 10890 10888 10887 10885 10884 10883 10882 10880 10879 10878 10876 10875 10873 10872 10871 10871 10870 10869 10869 10868 10868 10867 10866 10866 10865 10865 10864 10864
10917 10917 10918 10919 10919 10920 10920 10920 10919 10919 10919 10918 10918 10918 10918 10918 10918 10918 10918 10918 10918 10918 10918 10918 10917 10917 10917 10916 10915 10914 10914 10913 10913 10912 10911 10911 10911 10910 10910 10909 10908 10908 10907 10906 10906 10905 10905 10904 10903 10902 10901 10900 10899 10898 10896 10895 10894 10892 10891 10889 10887 10886 10885 10883 10882 10881 10879 10878 10876 10875 10873 10872 10871 10870 10870 10869 10868 10867 10867 10866 10865 10864 10863 10862 10862
10918 10918 10918 10918 10919 10920 10920 10919 10919 10919 10918 10918 10919 10919 10919 10919 10919 10919 10919 10919 10920 10920 10920 10920 10920 10920 10919 10918 10917 10917 10916 10916 10916 10915 10915 10914 10914 10914 10913 10912 10912 10911 10910 10910 10909 10909 10908 10907 10906 10905 10904 10903 10901 10900 10899 10898 10896 10895 10893 10891 10889 10888 10887 10886 10885 10883 10881 10880 10878 10876 10875 10873 10872 10871 10870 10869 10868 10867 10866 10865 10864 10863 10862 10861 10860
10918 10918 10918 10918 10919 10919 10919 10919 10919 10919 10918 10919 10919 10920 10920 10920 10921 10921 10921 10921 10922 10922 10922 10923 10924 10923 10922 10921 10920 10919 10919 10919 10919 10919 10919 10918 10918 10917 10917 10916 10915 10914 10914 10913 10912 10912 10911 10910 10909 10908 10907 10905 10904 10903 10902 10900 10899 10898 10896 10894 10892 10891 10890 10889 10887 10886 10884 10882 10880 10878 10876 10875 10874 10872 10871 10869 10868 10867 10866 10865 10864 10863 10862 10861 10859
10919 10918 10918 10918 10919 10919 10919 10919 10919 10919 10919 10920 10921 10921 10921 10922 10923 10923 10924 10924 10924 10925 10925 10926 10927 10926 10925 10923 10922 10922 10923 10923 10923 10923 10923 10922 10921 10921 10920 10919 10918 10918 10917 10916 10915 10915 10914 10912 10911 10911 10910 10908 10907 10906 10904 10903 10902 10901 10899 10897 10895 10894 10893 10892 10890 10889 10887 10884 10882 10880 10878 10877 10875 10873 10872 10870 10869 10868 10866 10865 10864 10863 10861 10859 10857
10918 10918 10917 10918 10919 10919 10919 10919 10919 10920 10920 10921 10922 10923 10924 10925 10925 10926 10926 10927 10927 10928 10928 10929 10929 10929 10928 10926 10925 10926 10926 10927 10927 10927 10926 10926 10925 10924 10924 10923 10922 10922 10921 10920 10919 10918 10917 10915 10914 10914 10913 10912 10911 10909 10908 10906 10905 10904 10903 10901 10899 10897 10896 10895 10893 10891 10889 10887 10884 10882 10880 10878 10876 10874 10873 10871 10870 10869 10868 10866 10865 10862 10860 10858 10854
10918 10918 10918 10918 10919 10920 10920 10920 10921 10922 10922 10923 10925 10926 10927 10928 10928 10929 10929 10930 10930 10931 10932 10932 10932 10932 10931 10930 10929 10929 10930 10930 10930 10930 10930 10929 10929 10928 10927 10926 10926 10925 10924 10923 10922 10921 10920 10918 10918 10917 10916 10915 10914 10912 10911 10909 10908 10907 10906 10904 10902 10900 10899 10898 10896 10894 10892 10889 10887 10884 10882 10880 10878 10876 10874 10872 10871 10870 10869 10867 10865 10863 10860 10856 10853
10918 10918 10919 10919 10920 10921 10921 10922 10923 10924 10925 10926 10928 10929 10930 10931 10931 10932 10933 10933 10934 10935 10935 10935 10935 10935 10934 10933 10933 10933 10934 10934 10934 10934 10933 10933 10932 10931 10930 10930 10929 10928 10927 10927 10926 10924 10923 10922 10921 10920 10919 10918 10917 10916 10914 10912 10911 10910 10909 10907 10905 10904 10903 10901 10899 10897 10894 10892 10889 10887 10884 10882 10879 10877 10875 10874 10873 10872 10870 10868 10866 10863 10859 10856 10852
10919 10919 10920 10920 10922 10923 10923 10924 10925 10927 10928 10930 10932 10932 10933 10934 10935 10935 10936 10937 10938 10938 10938 10938 10938 10938 10938 10937 10937 10937 10937 10937 10937 10937 10937 10936 10936 10935 10934 10933 10932 10931 10931 10930 10929 10928 10926 10925 10924 10923 10922 10922 10921 10920 10918 10916 10913 10913 10912 10911 10909 10907 10906 10904 10903 10900 10897 10894 10892 10890 10887 10884 10882 10879 10877 10876 10875 10873 10871 10869 10867 10863 10860 10856 10853
10920 10920 10921 10922 10924 10925 10926 10927 10928 10930 10932 10934 10935 10936 10937 10938 10938 10939 10940 10941 10942 10942 10942 10941 10941 10941 10941 10942 10941 10941 10941 10941 10940 10940 10940 10940 10939 10939 10937 10937 10936 10935 10934 10933 10932 10931 10930 10929 10928 10927 10926 10925 10924 10923 10922 10919 10917 10916 10915 10914 10912 10910 10909 10907 10905 10903 10900 10897 10895 10892 10890 10887 10884 10882 10879 10878 10877 10874 10872 10871 10868 10864 10861 10857 10854
10921 10922 10923 10924 10926 10927 10929 10930 10932 10934 10935 10937 10938 10939 10940 10941 10942 10943 10944 10944 10945 10945 10945 10944 10944 10944 10944 10945 10945 10945 10945 10944 10944 10943 10943 10943 10942 10942 10941 10940 10940 10939 10938 10937 10936 10935 10933 10932 10931 10931 10929 10928 10928 10927 10925 10922 10920 10920 10919 10917 10915 10913 10912 10910 10908 10906 10903 10900 10898 10896 10893 10890 10886 10884 10882 10880 10878 10876 10875 10873 10869 10866 10862 10859 10855
10923 10924 10926 10927 10928 10930 10932 10933 10935 10937 10939 10940 10941 10942 10944 10945 10945 10947 10947 10948 10948 10948 10948 10948 10948 10948 10948 10948 10949 10949 10948 10948 10947 10947 10946 10946 10945 10945 10944 10944 10943 10942 10941 10940 10940 10938 10937 10936 10935 10934 10933 10932 10932 10931 10928 10926 10925 10924 10922 10921 10919 10917 10915 10913 10911 10909 10906 10903 10901 10899 10896 10892 10889 10887 10885 10883 10880 10879 10877 10874 10871 10868 10864 10860 10856
10926 10928 10929 10930 10931 10933 10935 10936 10938 10940 10942 10944 10945 10946 10947 10948 10949 10950 10950 10951 10951 10951 10951 10951 10951 10951 10951 10952 10952 10952 10951 10951 10951 10951 10950 10949 10949 10948 10948 10947 10946 10945 10944 10944 10943 10942 10941 10939 10938 10937 10937 10936 10935 10934 10931 10930 10928 10927 10926 10925 10923 10920 10918 10917 10915 10912 10909 10907 10905 10902 10899 10895 10892 10890 10887 10885 10883 10882 10880 10876 10874 10871 10867 10863 10859
10930 10931 10932 10933 10935 10936 10938 10940 10941 10943 10945 10948 10949 10950 10951 10951 10952 10953 10953 10954 10954 10954 10954 10954 10954 10954 10955 10955 10956 10956 10955 10955 10955 10954 10954 10953 10952 10952 10951 10950 10949 10948 10948 10947 10946 10945 10944 10942 10941 10941 10940 10939 10938 10936 10934 10933 10931 10930 10930 10928 10926 10923 10922 10921 10919 10916 10913 10910 10908 10906 10902 10899 10896 10893 10890 10889 10887 10885 10882 10879 10877 10874 10870 10866 10863
10932 10934 10935 10937 10939 10940 10941 10943 10945 10946 10949 10951 10952 10953 10954 10955 10956 10956 10956 10956 10957 10957 10957 10957 10957 10958 10958 10958 10959 10959 10959 10958 10958 10958 10957 10956 10956 10955 10954 10953 10952 10952 10951 10951 10950 10949 10947 10946 10945 10944 10943 10942 10941 10939 10938 10936 10935 10934 10933 10931 10928 10926 10926 10925 10923 10919 10916 10914 10913 10910 10906 10902 10899 10896 10895 10893 10890 10888 10885 10882 10880 10878 10874 10871 10868
10935 10936 10938 10940 10942 10943 10944 10946 10948 10950 10952 10954 10956 10957 10957 10958 10959 10959 10959 10959 10959 10959 10960 10960 10961 10961 10961 10962 10962 10962 10962 10961 10961 10960 10959 10959 10958 10957 10957 10956 10955 10955 10954 10954 10954 10953 10951 10949 10948 10947 10946 10945 10944 10942 10941 10941 10939 10938 10936 10934 10931 10930 10930 10929 10926 10923 10921 10919 10917 10915 10910 10906 10903 10901 10900 10897 10894 10891 10888 10885 10883 10882 10879 10876 10874
10937 10939 10941 10943 10945 10946 10948 10949 10951 10954 10956 10957 10959 10960 10960 10961 10962 10962 10962 10962 10962 10962 10963 10963 10964 10964 10964 10965 10965 10965 10964 10964 10963 10962 10961 10961 10960 10960 10959 10959 10958 10958 10957 10957 10957 10956 10954 10953 10952 10951 10950 10949 10948 10946 10946 10945 10943 10941 10939 10937 10935 10934 10933 10932 10929 10927 10925 10924 10922 10919 10914 10910 10908 10906 10905 10902 10899 10896 10893 10890 10888 10886 10883 10881 10879
10941 10942 10944 10946 10947 10949 10951 10953 10955 10957 10959 10961 10962 10963 10963 10964 10964 10965 10965 10965 10965 10965 10966 10966 10967 10967 10967 10967 10967 10967 10966 10966 10965 10965 10964 10964 10964 10963 10963 10962 10962 10961 10961 10961 10960 10959 10958 10956 10955 10954 10953 10952 10951 10950 10950 10949 10947 10944 10943 10941 10939 10938 10937 10934 10932 10931 10930 10929 10927 10923 10918 10915 10913 10912 10910 10907 10904 10901 10898 10895 10893 10891 10888 10885 10884
10944 10945 10947 10949 10951 10952 10954 10957 10959 10961 10963 10964 10965 10966 10966 10967 10967 10967 10967 10967 10968 10968 10968 10969 10969 10970 10970 10970 10970 10969 10969 10969 10968 10968 10968 10968 10967 10966 10966 10966 10965 10965 10965 10964 10964 10962 10960 10959 10958 10958 10957 10956 10955 10955 10953 10952 10950 10948 10947 10945 10944 10943 10941 10937 10935 10936 10936 10934 10931 10927 10923 10921 10919 10918 10916 10913 10910 10907 10905 10902 10899 10896 10893 10890 10889
10948 10949 10951 10953 10955 10956 10958 10960 10963 10964 10966 10967 10968 10968 10969 10969 10969 10970 10970 10970 10970 10971 10971 10972 10972 10973 10973 10973 10972 10972 10972 10972 10971 10971 10971 10971 10971 10970 10969 10969 10969 10968 10968 10968 10967 10965 10963 10963 10962 10961 10960 10960 10960 10959 10957 10955 10953 10952 10951 10950 10948 10947 10944 10940 10939 10940 10940 10939 10935 10932 10929 10927 10925 10923 10921 10919 10916 10914 10911 10909 10906 10903 10900 10896 10895
10952 10954 10956 10957 10959 10960 10962 10964 10966 10968 10969 10970 10970 10971 10971 10972 10972 10972 10972 10973 10974 10974 10975 10975 10976 10976 10976 10976 10976 10976 10975 10975 10975 10975 10975 10974 10974 10973 10973 10972 10972 10972 10971 10971 10970 10969 10968 10967 10966 10965 10964 10964 10964 10962 10960 10958 10957 10957 10956 10954 10952 10951 10948 10945 10944 10945 10945 10943 10940 10937 10935 10933 10930 10929 10926 10924 10922 10920 10918 10916 10913 10911 10907 10904 10901
10957 10958 10960 10961 10963 10964 10966 10967 10969 10970 10971 10972 10973 10973 10974 10974 10974 10975 10976 10976 10977 10978 10978 10978 10979 10979 10979 10979 10978 10978 10978 10978 10977 10977 10977 10977 10977 10976 10976 10976 10976 10975 10975 10974 10973 10972 10972 10971 10969 10969 10969 10968 10966 10965 10963 10962 10962 10961 10960 10958 10956 10954 10952 10950 10949 10950 10949 10947 10944 10942 10941 10939 10936 10934 10932 10929 10928 10926 10925 10923 10920 10918 10915 10912 10909
10961 10962 10964 10965 10966 10967 10969 10970 10971 10972 10973 10974 10975 10976 10976 10977 10978 10978 10979 10980 10980 10981 10981 10982 10982 10982 10982 10982 10981 10981 10981 10980 10980 10980 10980 10980 10979 10979 10979 10979 10979 10978 10977 10977 10977 10976 10975 10974 10973 10973 10972 10970 10969 10968 10967 10967 10966 10965 10964 10962 10960 10958 10957 10955 10953 10954 10954 10951 10948 10947 10946 10944 10942 10940 10937 10935 10933 10932 10931 10930 10927 10925 10923 10920 10917
10965 10966 10967 10968 10970 10971 10972 10973 10974 10975 10976 10977 10978 10979 10979 10980 10981 10981 10982 10983 10983 10983 10984 10984 10984 10984 10984 10984 10984 10984 10984 10983 10983 10983 10983 10983 10982 10982 10981 10981 10981 10981 10980 10980 10980 10979 10978 10978 10977 10976 10975 10973 10972 10972 10971 10971 10970 10969 10968 10966 10964 10962 10961 10959 10958 10958 10958 10955 10953 10952 10950 10949 10947 10945 10943 10940 10939 10937 10936 10935 10934 10931 10929 10927 10925
10968 10969 10970 10971 10972 10973 10975 10976 10977 10977 10978 10979 10980 10981 10982 10983 10983 10984 10985 10985 10985 10986 10986 10986 10986 10986 10987 10987 10987 10987 10987 10986 10986 10986 10986 10986 10985 10985 10984 10984 10984 10984 10983 10983 10982 10982 10981 10981 10980 10979 10978 10977 10976 10976 10975 10974 10973 10972 10971 10969 10967 10965 10964 10963 10962 10962 10961 10959 10957 10956 10955 10954 10952 10950 10948 10946 10944 10942 10940 10940 10939 10937 10935 10934 10932
10971 10972 10973 10974 10975 10976 10977 10978 10979 10980 10981 10982 10983 10984 10984 10985 10986 10986 10987 10987 10987 10988 10988 10988 10988 10988 10989 10989 10989 10989 10989 10989 10989 10988 10988 10988 10988 10987 10987 10986 10986 10986 10986 10985 10985 10984 10984 10983 10983 10982 10981 10980 10980 10979 10978 10976 10975 10975 10974 10972 10970 10969 10967 10967 10966 10965 10964 10963 10961 10960 10959 10958 10956 10955 10953 10951 10950 10948 10946 10944 10943 10942 10941 10939 10938
10974 10974 10975 10976 10977 10978 10979 10980 10981 10982 10983 10984 10985 10985 10986 10987 10988 10988 10989 10989 10990 10990 10990 10990 10990 10990 10990 10990 10990 10991 10991 10991 10991 10991 10990 10990 10990 10989 10989 10989 10989 10989 10988 10987 10987 10986 10986 10985 10985 10984 10983 10983 10982 10981 10980 10979 10978 10977 10976 10975 10973 10971 10970 10970 10969 10968 10967 10966 10964 10963 10963 10962 10960 10958 10957 10955 10954 10953 10951 10949 10947 10947 10945 10944 10943
10976 10977 10977 10978 10979 10980 10981 10982 10983 10984 10985 10985 10986 10987 10988 10989 10989 10990 10991 10991 10991 10991 10992 10992 10992 10992 10992 10992 10992 10992 10993 10993 10993 10993 10993 10992 10992 10992 10991 10991 10991 10991 10990 10989 10988 10988 10988 10987 10987 10986 10985 10985 10984 10983 10982 10981 10981 10980 10979 10977 10976 10974 10973 10973 10972 10971 10970 10969 10967 10966 10966 10965 10964 10962 10961 10959 10958 10957 10956 10954 10952 10951 10949 10948 10947
10979 10979 10980 10981 10981 10982 10983 10984 10984 10985 10986 10986 10987 10988 10989 10990 10991 10991 10992 10992 10993 10993 10993 10993 10994 10994 10994 10994 10994 10994 10994 10994 10994 10994 10994 10994 10994 10994 10994 10993 10993 10992 10992 10991 10990 10990 10989 10989 10988 10988 10988 10987 10986 10985 10984 10983 10983 10982 10981 10979 10978 10977 10976 10975 10974 10973 10972 10971 10970 10969 10969 10968 10966 10965 10964 10963 10961 10960 10959 10958 10957 10955 10953 10952 10951
10981 10981 10982 10982 10983 10984 10985 10985 10986 10986 10987 10987 10988 10989 10990 10991 10992 10992 10993 10993 10994 10994 10994 10995 10995 10995 10995 10996 10996 10996 10995 10995 10995 10995 10995 10995 10995 10995 10994 10994 10994 10994 10993 10992 10992 10992 10991 10991 10990 10990 10989 10989 10988 10987 10986 10986 10985 10984 10983 10982 10980 10979 10979 10978 10977 10976 10975 10974 10973 10972 10971 10970 10969 10968 10967 10966 10964 10963 10962 10961 10960 10958 10957 10955 10954
10983 10983 10984 10984 10985 10985 10986 10986 10987 10987 10988 10988 10989 10990 10991 10992 10992 10993 10994 10994 10995 10995 10995 10996 10996 10997 10997 10997 10997 10997 10996 10996 10996 10996 10996 10995 10995 10995 10994 10994 10994 10994 10994 10994 10993 10993 10992 10992 10991 10991 10990 10990 10989 10989 10988 10987 10986 10985 10984 10983 10982 10981 10980 10980 10979 10978 10977 10976 10975 10975 10974 10972 10971 10970 10969 10968 10967 10966 10965 10964 10963 10961 10960 10959 10957
10984 10985 10985 10986 10987 10987 10987 10988 10988 10988 10989 10989 10989 10990 10990 10992 10993 10993 10994 10995 10995 10996 10996 10996 10997 10997 10998 10998 10998 10998 10997 10997 10996 10996 10996 10995 10995 10995 10994 10994 10994 10994 10994 10994 10994 10993 10993 10992 10991 10991 10991 10991 10990 10990 10989 10988 10987 10986 10985 10984 10984 10983 10982 10981 10981 10980 10979 10978 10977 10976 10975 10974 10973 10972 10971 10970 10969 10968 10967 10966 10965 10964 10962 10961 10960
10986 10987 10987 10987 10988 10988 10988 10988 10989 10989 10990 10990 10990 10990 10990 10991 10993 10993 10994 10995 10996 10996 10996 10997 10997 10998 10998 10998 10998 10998 10998 10997 10997 10997 10996 10996 10995 10995 10995 10995 10994 10994 10994 10994 10993 10993 10992 10992 10991 10991 10991 10991 10990 10990 10989 10988 10987 10987 10986 10985 10985 10984 10983 10982 10982 10981 10980 10979 10978 10977 10976 10975 10974 10973 10972 10971 10970 10969 10968 10967 10966 10965 10964 10963 10962
10988 10988 10989 10989 10989 10989 10989 10990 10991 10991 10992 10993 10993 10992 10992 10993 10994 10995 10995 10995 10996 10996 10997 10997 10997 10998 10998 10998 10998 10998 10998 10998 10998 10997 10997 10997 10996 10995 10995 10995 10994 10994 10994 10993 10993 10993 10992 10992 10991 10991 10990 10990 10990 10989 10988 10988 10987 10986 10986 10985 10985 10984 10983 10983 10982 10981 10980 10979 10978 10977 10976 10975 10974 10973 10973 10972 10971 10970 10969 10968 10967 10967 10965 10964 10963
10988 10989 10990 10990 10991 10991 10991 10992 10993 10993 10994 10994 10994 10994 10994 10995 10996 10996 10996 10996 10996 10997 10997 10997 10998 10998 10998 10999 10999 10999 10999 10999 10998 10998 10997 10997 10996 10995 10995 10995 10994 10994 10994 10994 10993 10993 10993 10992 10992 10991 10990 10990 10989 10988 10988 10987 10986 10986 10985 10985 10984 10984 10983 10982 10981 10981 10980 10979 10979 10977 10976 10975 10974 10973 10972 10972 10971 10970 10969 10968 10968 10967 10966 10965 10964
10988 10989 10989 10991 10991 10992 10993 10994 10995 10995 10995 10994 10994 10994 10994 10995 10996 10996 10996 10996 10996 10997 10997 10997 10998 10998 10998 10998 10999 10999 10999 10998 10998 10997 10997 10996 10996 10995 10995 10995 10995 10994 10994 10994 10993 10993 10993 10993 10992 10991 10990 10989 10989 10988 10987 10986 10985 10985 10985 10984 10984 10983 10983 10982 10981 10980 10979 10979 10978 10977 10976 10975 10974 10973 10972 10971 10971 10970 10969 10968 10967 10966 10966 10965 10964
10988 10988 10990 10991 10991 10992 10993 10994 10995 10995 10995 10994 10994 10994 10994 10995 10995 10995 10996 10996 10996 10997 10997 10997 10998 10998 10998 10998 10998 10998 10998 10998 10997 10997 10996 10996 10996 10995 10995 10995 10994 10994 10994 10994 10993 10993 10993 10992 10991 10991 10990 10989 10988 10987 10986 10985 10985 10984 10984 10984 10984 10983 10982 10981 10981 10980 10979 10978 10977 10976 10976 10975 10974 10973 10972 10971 10970 10969 10968 10967 10966 10966 10965 10964 10963
10987 10988 10990 10990 10990 10991 10991 10992 10993 10994 10994 10994 10994 10994 10994 10995 10995 10995 10995 10995 10996 10996 10997 10997 10997 10997 10997 10997 10997 10997 10997 10997 10996 10996 10995 10995 10995 10995 10995 10994 10994 10994 10993 10993 10993 10992 10992 10991 10991 10990 10989 10988 10987 10986 10985 10984 10983 10983 10983 10983 10983 10982 10982 10981 10980 10979 10978 10977 10976 10975 10974 10974 10973 10972 10971 10970 10969 10968 10967 10967 10966 10965 10964 10963 10962
10987 10988 10989 10989 10989 10989 10990 10991 10991 10992 10992 10992 10993 10993 10994 10994 10994 10994 10994 10995 10995 10996 10997 10997 10997 10997 10997 10997 10996 10996 10995 10995 10995 10995 10995 10994 10994 10994 10994 10994 10993 10993 10993 10992 10992 10991 10991 10990 10989 10989 10988 10987 10986 10985 10984 10983 10982 10982 10981 10981 10981 10981 10980 10980 10979 10978 10977 10976 10975 10974 10973 10972 10971 10970 10969 10969 10968 10967 10966 10965 10964 10963 10962 10962 10961
10986 10987 10987 10988 10988 10988 10988 10989 10990 10990 10991 10991 10991 10992 10993 10993 10993 10993 10994 10994 10995 10995 10996 10996 10996 10996 10996 10996 10995 10995 10994 10994 10994 10993 10993 10993 10993 10993 10993 10993 10992 10992 10992 10991 10991 10990 10989 10989 10988 10987 10986 10986 10985 10984 10983 10982 10981 10980 10979 10979 10978 10978 10978 10977 10977 10976 10976 10975 10974 10973 10971 10970 10969 10968 10967 10966 10966 10965 10964 10963 10962 10961 10961 10960 10959
10984 10985 10986 10986 10986 10986 10987 10987 10988 10988 10989 10989 10989 10990 10991 10991 10992 10992 10993 10994 10994 10995 10995 10995 10995 10995 10995 10995 10995 10994 10994 10993 10993 10992 10992 10992 10992 10992 10991 10991 10991 10991 10990 10990 10989 10988 10988 10987 10986 10985 10985 10984 10983 10982 10982 10981 10980 10979 10977 10977 10976 10975 10974 10974 10973 10973 10973 10973 10972 10971 10969 10968 10967 10966 10965 10963 10962 10962 10962 10961 10960 10959 10958 10957 10956
10982 10983 10984 10984 10985 10985 10985 10985 10986 10986 10987 10987 10988 10988 10989 10990 10990 10991 10992 10993 10993 10994 10994 10994 10994 10994 10994 10994 10994 10993 10993 10992 10991 10991 10990 10990 10990 10990 10989 10989 10988 10988 10988 10988 10987 10986 10986 10985 10985 10984 10983 10982 10981 10980 10979 10978 10977 10976 10975 10974 10973 10972 10971 10971 10970 10969 10968 10968 10968 10968 10966 10966 10965 10964 10963 10961 10959 10958 10958 10958 10957 10957 10956 10955 10954
10981 10981 10982 10982 10983 10983 10983 10984 10984 10985 10985 10985 10986 10986 10987 10987 10988 10989 10990 10991 10992 10993 10993 10993 10993 10993 10993 10993 10992 10992 10991 10990 10990 10989 10989 10988 10988 10988 10987 10986 10986 10985 10985 10985 10985 10984 10984 10983 10983 10982 10981 10981 10980 10979 10977 10976 10975 10974 10973 10972 10971 10970 10969 10968 10968 10967 10965 10964 10963 10963 10963 10962 10962 10961 10960 10959 10957 10955 10954 10954 10954 10954 10953 10952 10951
10979 10979 10980 10980 10980 10981 10981 10982 10982 10983 10983 10983 10984 10984 10985 10985 10986 10987 10988 10989 10991 10992 10992 10992 10991 10991 10990 10990 10990 10989 10988 10988 10987 10987 10986 10986 10985 10985 10984 10984 10983 10982 10982 10981 10981 10981 10980 10980 10980 10980 10979 10978 10977 10977 10975 10974 10973 10972 10971 10970 10969 10968 10967 10966 10965 10965 10963 10961 10959 10959 10959 10958 10957 10957 10957 10956 10954 10952 10951 10949 10949 10949 10950 10949 10948
10977 10977 10978 10978 10978 10978 10979 10979 10980 10980 10981 10981 10982 10982 10983 10983 10984 10985 10986 10989 10990 10990 10989 10989 10988 10988 10988 10987 10986 10986 10985 10984 10984 10984 10984 10983 10982 10982 10982 10981 10980 10980 10979 10978 10977 10977 10977 10976 10976 10976 10975 10974 10974 10973 10973 10971 10970 10969 10968 10967 10966 10965 10964 10963 10963 10962 10961 10959 10956 10954 10954 10954 10953 10952 10952 10952 10951 10949 10948 10946 10945 10944 10944 10945 10944
10974 10975 10975 10975 10975 10976 10976 10977 10977 10978 10978 10979 10979 10980 10981 10981 10982 10983 10985 10988 10988 10985 10984 10985 10986 10986 10985 10983 10982 10982 10981 10981 10981 10981 10980 10980 10979 10979 10978 10978 10977 10976 10976 10975 10974 10973 10972 10972 10972 10972 10971 10971 10970 10969 10969 10968 10967 10966 10965 10964 10963 10962 10961 10960 10959 10959 10957 10956 10954 10951 10949 10950 10949 10948 10947 10947 10947 10946 10944 10943 10942 10941 10940 10939 10938
10971 10971 10972 10973 10974 10974 10974 10975 10975 10975 10975 10976 10976 10977 10978 10978 10979 10981 10983 10985 10985 10982 10982 10983 10983 10982 10980 10979 10978 10978 10977 10977 10977 10977 10977 10976 10975 10975 10974 10974 10973 10973 10972 10971 10970 10969 10968 10968 10967 10967 10966 10966 10965 10965 10964 10963 10963 10962 10961 10960 10959 10958 10957 10956 10956 10955 10954 10952 10951 10948 10945 10945 10945 10943 10942 10942 10941 10941 10940 10939 10938 10937 10936 10934 10933
10967 10968 10970 10971 10971 10970 10970 10972 10972 10972 10972 10972 10973 10973 10974 10975 10976 10977 10979 10980 10980 10979 10978 10978 10978 10976 10975 10975 10975 10974 10973 10973 10973 10973 10972 10971 10971 10970 10970 10970 10969 10969 10968 10967 10966 10965 10964 10963 10962 10962 10961 10960 10959 10959 10958 10958 10957 10957 10956 10956 10955 10953 10952 10951 10951 10950 10949 10947 10946 10944 10941 10939 10939 10938 10936 10935 10935 10934 10933 10933 10931 10931 10930 10929 10927
10964 10966 10967 10967 10966 10964 10966 10968 10968 10968 10968 10969 10969 10969 10970 10971 10972 10973 10973 10974 10974 10974 10973 10973 10973 10972 10971 10971 10970 10969 10968 10968 10968 10968 10967 10967 10966 10966 10966 10966 10965 10964 10963 10963 10962 10961 10960 10959 10958 10957 10956 10955 10954 10953 10953 10952 10952 10951 10950 10949 10948 10947 10946 10945 10944 10943 10942 10941 10939 10938 10935 10934 10933 10932 10930 10929 10928 10926 10926 10925 10923 10923 10923 10921 10920
10961 10962 10962 10962 10961 10960 10962 10963 10962 10962 10963 10963 10964 10965 10966 10966 10967 10967 10968 10969 10968 10968 10968 10968 10967 10966 10966 10965 10964 10963 10963 10962 10962 10962 10962 10961 10961 10962 10962 10961 10961 10960 10960 10958 10957 10956 10955 10954 10953 10952 10952 10951 10950 10949 10948 10947 10946 10945 10944 10943 10941 10940 10939 10937 10936 10935 10935 10934 10932 10931 10930 10928 10926 10925 10924 10923 10921 10919 10918 10917 10915 10914 10914 10913 10912
10956 10957 10958 10958 10958 10957 10957 10957 10956 10956 10957 10958 10960 10961 10961 10962 10961 10961 10962 10964 10963 10963 10962 10962 10961 10960 10960 10959 10958 10958 10957 10956 10956 10956 10955 10955 10956 10956 10957 10956 10956 10956 10955 10953 10952 10951 10950 10949 10948 10947 10947 10946 10945 10944 10943 10942 10941 10939 10938 10937 10935 10933 10932 10930 10929 10928 10927 10927 10925 10924 10923 10921 10920 10919 10917 10916 10914 10912 10910 10909 10907 10906 10905 10904 10904